Starlink 3732

operational
NORAD ID: 52126 Int'l Des: 2022-029 Owner: SPXS Country: US Constellation: starlink
LEOCIRCULAR

Über Starlink 3732

Beschreibung wird geladen...

Live-Position

3D-Globus wird geladen...

Nächste Überflüge

Höhenverlauf

Altitude vs Time

uPlot chart will show altitude changes over time

Zweizeiliger Elementsatz

1 52126U 22029AQ 25354.60656119 .00000148 00000-0 27393-4 0 9995
2 52126 53.2192 64.1387 0001413 93.9142 266.2011 15.08840640208987
Epoch: 20. Dez. 2025 • Age: 11 hours

Aktueller Status

Höhe 557.9 km
Geschwindigkeit 7.58 km/s
Subsatellitenpunkt -50.04°S, 163.34°W
Startdatum 19. März 2022
Alter 3.7 years
Typ internet

Technische Details

Klassifizierung Payload
Masse 297.00 kg
Trockenmasse 275.00 kg
Gesamtmasse 297.00 kg
Länge 0.20 m
Durchmesser 2.80 m
Spannweite 9.00 m
Form Box + pan
Hersteller SPXS
Bus-Typ Starlink
Phasenstatus In Orbit
Besitzer/Staat SPXS/US

Große Konstellationen

Loading constellations...